Time,TemperatureF,DewpointF,PressureIn,WindDirection,WindDirectionDegrees,WindSpeedMPH,WindSpeedGustMPH,Humidity,HourlyPrecipIn,Conditions,Clouds,dailyrainin,SoftwareType,DateUTC
2013-03-22 00:03:00,37.6,16.5,29.85,N/A,-737280,0.0,-999.0,42,0.00,,,0.00,Wunderground v.1.15,2013-03-22 06:03:00,
2013-03-22 00:08:00,36.4,17.1,29.85,NNW,338,0.0,-999.0,45,0.00,,,0.00,Wunderground v.1.15,2013-03-22 06:08:00,
2013-03-22 00:13:00,35.5,17.2,29.85,N/A,-737280,0.0,-999.0,47,0.00,,,0.00,Wunderground v.1.15,2013-03-22 06:13:00,
2013-03-22 00:18:00,35.0,16.8,29.84,N/A,-737280,0.0,-999.0,47,0.00,,,0.00,Wunderground v.1.15,2013-03-22 06:18:00,
2013-03-22 00:23:00,34.5,16.8,29.84,N/A,-737280,0.0,-999.0,48,0.00,,,0.00,Wunderground v.1.15,2013-03-22 06:23:00,
2013-03-22 00:28:00,34.4,17.2,29.84,N/A,-737280,0.0,-999.0,49,0.00,,,0.00,Wunderground v.1.15,2013-03-22 06:28:00,
2013-03-22 00:33:00,34.4,17.2,29.84,N/A,-737280,0.0,-999.0,49,0.00,,,0.00,Wunderground v.1.15,2013-03-22 06:33:00,
2013-03-22 00:38:00,34.1,17.8,29.84,N/A,-737280,0.0,-999.0,51,0.00,,,0.00,Wunderground v.1.15,2013-03-22 06:38:00,
2013-03-22 00:43:00,34.2,17.0,29.84,NNW,338,0.0,-999.0,49,0.00,,,0.00,Wunderground v.1.15,2013-03-22 06:43:00,
2013-03-22 00:48:00,34.4,17.7,29.84,N/A,-737280,0.0,-999.0,50,0.00,,,0.00,Wunderground v.1.15,2013-03-22 06:48:00,
2013-03-22 00:53:00,34.4,18.1,29.84,N/A,-737280,0.0,-999.0,51,0.00,,,0.00,Wunderground v.1.15,2013-03-22 06:53:00,
2013-03-22 00:58:00,34.4,17.7,29.84,N/A,-737280,0.0,-999.0,50,0.00,,,0.00,Wunderground v.1.15,2013-03-22 06:58:00,
2013-03-22 01:03:00,34.4,18.1,29.84,N/A,-737280,0.0,-999.0,51,0.00,,,0.00,Wunderground v.1.15,2013-03-22 07:03:00,
2013-03-22 01:08:00,34.4,19.0,29.83,NNW,338,1.0,-999.0,53,0.00,,,0.00,Wunderground v.1.15,2013-03-22 07:08:00,
2013-03-22 01:13:00,34.4,18.6,29.83,NNW,338,0.0,-999.0,52,0.00,,,0.00,Wunderground v.1.15,2013-03-22 07:13:00,
2013-03-22 01:18:00,34.4,17.7,29.83,N/A,-737280,0.0,-999.0,50,0.00,,,0.00,Wunderground v.1.15,2013-03-22 07:18:00,
2013-03-22 01:23:00,34.4,16.7,29.83,N/A,-737280,0.0,-999.0,48,0.00,,,0.00,Wunderground v.1.15,2013-03-22 07:23:00,
2013-03-22 01:28:00,34.4,14.7,29.83,NNW,338,0.0,-999.0,44,0.00,,,0.00,Wunderground v.1.15,2013-03-22 07:28:00,
2013-03-22 01:33:00,34.5,17.3,29.82,NNW,338,2.0,-999.0,49,0.00,,,0.00,Wunderground v.1.15,2013-03-22 07:33:00,
2013-03-22 01:38:00,34.8,17.6,29.82,NNW,338,1.0,-999.0,49,0.00,,,0.00,Wunderground v.1.15,2013-03-22 07:38:00,
2013-03-22 01:43:00,35.3,18.0,29.82,N/A,-737280,0.0,-999.0,49,0.00,,,0.00,Wunderground v.1.15,2013-03-22 07:43:00,
2013-03-22 01:48:00,35.3,17.5,29.82,N/A,-737280,0.0,-999.0,48,0.00,,,0.00,Wunderground v.1.15,2013-03-22 07:48:00,
2013-03-22 01:53:00,35.1,17.4,29.82,N/A,-737280,0.0,-999.0,48,0.00,,,0.00,Wunderground v.1.15,2013-03-22 07:53:00,
2013-03-22 01:58:00,34.8,17.1,29.82,N/A,-737280,0.0,-999.0,48,0.00,,,0.00,Wunderground v.1.15,2013-03-22 07:58:00,
2013-03-22 02:03:00,34.4,17.7,29.82,N/A,-737280,0.0,-999.0,50,0.00,,,0.00,Wunderground v.1.15,2013-03-22 08:03:00,
2013-03-22 02:08:00,34.6,16.9,29.82,NNW,338,0.0,-999.0,48,0.00,,,0.00,Wunderground v.1.15,2013-03-22 08:08:00,
2013-03-22 02:13:00,35.1,14.8,29.82,NNW,338,0.0,-999.0,43,0.00,,,0.00,Wunderground v.1.15,2013-03-22 08:13:00,
2013-03-22 02:18:00,35.8,14.9,29.81,N/A,-737280,0.0,-999.0,42,0.00,,,0.00,Wunderground v.1.15,2013-03-22 08:18:00,
2013-03-22 02:23:00,36.1,17.8,29.82,NNW,338,2.0,-999.0,47,0.00,,,0.00,Wunderground v.1.15,2013-03-22 08:23:00,
2013-03-22 02:28:00,35.7,18.4,29.81,NNW,338,1.0,-999.0,49,0.00,,,0.00,Wunderground v.1.15,2013-03-22 08:28:00,
2013-03-22 02:33:00,35.2,17.0,29.81,N/A,-737280,0.0,-999.0,47,0.00,,,0.00,Wunderground v.1.15,2013-03-22 08:33:00,
2013-03-22 02:38:00,35.0,16.8,29.81,NNW,338,1.0,-999.0,47,0.00,,,0.00,Wunderground v.1.15,2013-03-22 08:38:00,
2013-03-22 02:43:00,35.1,16.4,29.80,NNW,338,1.0,-999.0,46,0.00,,,0.00,Wunderground v.1.15,2013-03-22 08:43:00,
2013-03-22 02:48:00,35.7,15.4,29.80,NNW,338,2.0,-999.0,43,0.00,,,0.00,Wunderground v.1.15,2013-03-22 08:48:00,
2013-03-22 02:53:00,36.6,14.5,29.80,NNW,338,0.0,-999.0,40,0.00,,,0.00,Wunderground v.1.15,2013-03-22 08:53:00,
2013-03-22 02:58:00,37.3,14.6,29.80,NNW,338,1.0,-999.0,39,0.00,,,0.00,Wunderground v.1.15,2013-03-22 08:58:00,
2013-03-22 03:03:00,37.6,14.2,29.80,N/A,-737280,0.0,-999.0,38,0.00,,,0.00,Wunderground v.1.15,2013-03-22 09:03:00,
2013-03-22 03:08:00,37.6,16.0,29.80,N/A,-737280,0.0,-999.0,41,0.00,,,0.00,Wunderground v.1.15,2013-03-22 09:08:00,
2013-03-22 03:13:00,36.9,20.0,29.80,NNW,338,1.0,-999.0,50,0.00,,,0.00,Wunderground v.1.15,2013-03-22 09:13:00,
2013-03-22 03:18:00,35.7,20.7,29.80,N/A,-737280,0.0,-999.0,54,0.00,,,0.00,Wunderground v.1.15,2013-03-22 09:18:00,
2013-03-22 03:23:00,34.4,21.1,29.80,N/A,-737280,0.0,-999.0,58,0.00,,,0.00,Wunderground v.1.15,2013-03-22 09:23:00,
2013-03-22 03:28:00,33.5,21.1,29.80,N/A,-737280,0.0,-999.0,60,0.00,,,0.00,Wunderground v.1.15,2013-03-22 09:28:00,
2013-03-22 03:33:00,32.8,20.8,29.80,N/A,-737280,0.0,-999.0,61,0.00,,,0.00,Wunderground v.1.15,2013-03-22 09:33:00,
2013-03-22 03:38:00,32.3,20.3,29.80,NNW,338,0.0,-999.0,61,0.00,,,0.00,Wunderground v.1.15,2013-03-22 09:38:00,
2013-03-22 03:43:00,32.1,21.3,29.80,NNW,338,2.0,-999.0,64,0.00,,,0.00,Wunderground v.1.15,2013-03-22 09:43:00,
2013-03-22 03:48:00,31.8,21.7,29.80,N/A,-737280,0.0,-999.0,66,0.00,,,0.00,Wunderground v.1.15,2013-03-22 09:48:00,
2013-03-22 03:53:00,31.5,21.4,29.80,N/A,-737280,0.0,-999.0,66,0.00,,,0.00,Wunderground v.1.15,2013-03-22 09:53:00,
2013-03-22 03:58:00,31.4,21.7,29.80,N/A,-737280,0.0,-999.0,67,0.00,,,0.00,Wunderground v.1.15,2013-03-22 09:58:00,
2013-03-22 04:03:00,31.4,22.1,29.80,NNW,338,0.0,-999.0,68,0.00,,,0.00,Wunderground v.1.15,2013-03-22 10:03:00,
2013-03-22 04:08:00,31.4,21.3,29.80,N/A,-737280,0.0,-999.0,66,0.00,,,0.00,Wunderground v.1.15,2013-03-22 10:08:00,
2013-03-22 04:13:00,31.5,21.1,29.79,N/A,-737280,0.0,-999.0,65,0.00,,,0.00,Wunderground v.1.15,2013-03-22 10:13:00,
2013-03-22 04:18:00,31.6,21.2,29.80,N/A,-737280,0.0,-999.0,65,0.00,,,0.00,Wunderground v.1.15,2013-03-22 10:18:00,
2013-03-22 04:23:00,31.8,21.4,29.80,N/A,-737280,0.0,-999.0,65,0.00,,,0.00,Wunderground v.1.15,2013-03-22 10:23:00,
2013-03-22 04:28:00,31.9,21.8,29.79,N/A,-737280,0.0,-999.0,66,0.00,,,0.00,Wunderground v.1.15,2013-03-22 10:28:00,
2013-03-22 04:33:00,31.9,22.5,29.79,NNW,338,2.0,-999.0,68,0.00,,,0.00,Wunderground v.1.15,2013-03-22 10:33:00,
2013-03-22 04:38:00,31.7,22.7,29.79,N/A,-737280,0.0,-999.0,69,0.00,,,0.00,Wunderground v.1.15,2013-03-22 10:38:00,
2013-03-22 04:43:00,31.6,22.6,29.79,NNW,338,1.0,-999.0,69,0.00,,,0.00,Wunderground v.1.15,2013-03-22 10:43:00,
2013-03-22 04:48:00,31.6,21.9,29.79,N/A,-737280,0.0,-999.0,67,0.00,,,0.00,Wunderground v.1.15,2013-03-22 10:48:00,
2013-03-22 04:58:00,32.0,21.9,29.79,N/A,-737280,0.0,-999.0,66,0.00,,,0.00,Wunderground v.1.15,2013-03-22 10:58:00,
2013-03-22 05:03:00,31.9,22.2,29.79,NNW,338,0.0,-999.0,67,0.00,,,0.00,Wunderground v.1.15,2013-03-22 11:03:00,
2013-03-22 05:08:00,31.7,21.6,29.79,NNW,338,0.0,-999.0,66,0.00,,,0.00,Wunderground v.1.15,2013-03-22 11:08:00,
2013-03-22 05:13:00,31.6,21.2,29.79,N/A,-737280,0.0,-999.0,65,0.00,,,0.00,Wunderground v.1.15,2013-03-22 11:13:00,
2013-03-22 05:18:00,31.6,21.5,29.78,N/A,-737280,0.0,-999.0,66,0.00,,,0.00,Wunderground v.1.15,2013-03-22 11:18:00,
2013-03-22 05:23:00,31.4,21.7,29.78,N/A,-737280,0.0,-999.0,67,0.00,,,0.00,Wunderground v.1.15,2013-03-22 11:23:00,
2013-03-22 05:28:00,31.3,22.0,29.78,N/A,-737280,0.0,-999.0,68,0.00,,,0.00,Wunderground v.1.15,2013-03-22 11:28:00,
2013-03-22 05:33:00,31.1,21.8,29.78,N/A,-737280,0.0,-999.0,68,0.00,,,0.00,Wunderground v.1.15,2013-03-22 11:33:00,
2013-03-22 05:38:00,30.9,21.6,29.78,N/A,-737280,0.0,-999.0,68,0.00,,,0.00,Wunderground v.1.15,2013-03-22 11:38:00,
2013-03-22 05:43:00,31.1,20.3,29.78,NNW,338,2.0,-999.0,64,0.00,,,0.00,Wunderground v.1.15,2013-03-22 11:43:00,
2013-03-22 05:48:00,32.0,19.3,29.78,NNW,338,1.0,-999.0,59,0.00,,,0.00,Wunderground v.1.15,2013-03-22 11:48:00,
2013-03-22 05:53:00,32.9,19.3,29.79,SSE,158,0.0,-999.0,57,0.00,,,0.00,Wunderground v.1.15,2013-03-22 11:53:00,
2013-03-22 05:58:00,33.6,19.6,29.79,ENE,68,2.0,-999.0,56,0.00,,,0.00,Wunderground v.1.15,2013-03-22 11:58:00,
2013-03-22 06:03:00,34.2,19.3,29.79,East,90,1.0,-999.0,54,0.00,,,0.00,Wunderground v.1.15,2013-03-22 12:03:00,
2013-03-22 06:08:00,34.4,19.0,29.79,ESE,113,1.0,-999.0,53,0.00,,,0.00,Wunderground v.1.15,2013-03-22 12:08:00,
2013-03-22 06:13:00,34.8,19.4,29.79,East,90,1.0,-999.0,53,0.00,,,0.00,Wunderground v.1.15,2013-03-22 12:13:00,
2013-03-22 06:18:00,35.0,19.1,29.79,East,90,2.0,-999.0,52,0.00,,,0.00,Wunderground v.1.15,2013-03-22 12:18:00,
2013-03-22 06:28:00,35.3,19.0,29.79,ESE,113,0.0,-999.0,51,0.00,,,0.00,Wunderground v.1.15,2013-03-22 12:28:00,
2013-03-22 06:33:00,35.5,19.1,29.79,N/A,-737280,0.0,-999.0,51,0.00,,,0.00,Wunderground v.1.15,2013-03-22 12:33:00,
2013-03-22 06:38:00,35.6,19.2,29.79,ESE,113,1.0,-999.0,51,0.00,,,0.00,Wunderground v.1.15,2013-03-22 12:38:00,
2013-03-22 06:43:00,35.6,19.2,29.80,ESE,113,2.0,-999.0,51,0.00,,,0.00,Wunderground v.1.15,2013-03-22 12:43:00,
2013-03-22 06:48:00,35.6,19.2,29.79,ESE,113,2.0,-999.0,51,0.00,,,0.00,Wunderground v.1.15,2013-03-22 12:48:00,
2013-03-22 06:53:00,35.5,19.1,29.79,ESE,113,2.0,-999.0,51,0.00,,,0.00,Wunderground v.1.15,2013-03-22 12:53:00,
2013-03-22 06:58:00,35.4,19.5,29.79,ESE,113,0.0,-999.0,52,0.00,,,0.00,Wunderground v.1.15,2013-03-22 12:58:00,
2013-03-22 07:03:00,35.0,20.0,29.79,N/A,-737280,0.0,-999.0,54,0.00,,,0.00,Wunderground v.1.15,2013-03-22 13:03:00,
2013-03-22 07:08:00,34.4,19.5,29.79,ESE,113,0.0,-999.0,54,0.00,,,0.00,Wunderground v.1.15,2013-03-22 13:08:00,
2013-03-22 07:13:00,34.1,19.6,29.79,ESE,113,2.0,-999.0,55,0.00,,,0.00,Wunderground v.1.15,2013-03-22 13:13:00,
2013-03-22 07:23:00,34.0,19.9,29.79,ESE,113,3.0,-999.0,56,0.00,,,0.00,Wunderground v.1.15,2013-03-22 13:23:00,
2013-03-22 07:28:00,34.2,20.1,29.78,ESE,113,2.0,-999.0,56,0.00,,,0.00,Wunderground v.1.15,2013-03-22 13:28:00,
2013-03-22 07:33:00,34.1,20.4,29.79,ESE,113,0.0,-999.0,57,0.00,,,0.00,Wunderground v.1.15,2013-03-22 13:33:00,
2013-03-22 07:43:00,33.5,20.3,29.79,N/A,-737280,0.0,-999.0,58,0.00,,,0.00,Wunderground v.1.15,2013-03-22 13:43:00,
2013-03-22 07:48:00,33.1,19.9,29.79,N/A,-737280,0.0,-999.0,58,0.00,,,0.00,Wunderground v.1.15,2013-03-22 13:48:00,
2013-03-22 07:53:00,32.7,20.3,29.80,N/A,-737280,0.0,-999.0,60,0.00,,,0.00,Wunderground v.1.15,2013-03-22 13:53:00,
2013-03-22 07:58:00,32.3,21.1,29.80,North,0,1.0,-999.0,63,0.00,,,0.00,Wunderground v.1.15,2013-03-22 13:58:00,
2013-03-22 08:03:00,32.0,22.3,29.80,NNW,338,5.0,-999.0,67,0.00,,,0.00,Wunderground v.1.15,2013-03-22 14:03:00,
2013-03-22 08:08:00,31.7,22.7,29.80,NNW,338,2.0,-999.0,69,0.00,,,0.00,Wunderground v.1.15,2013-03-22 14:08:00,
2013-03-22 08:13:00,31.9,22.9,29.80,NNW,338,2.0,-999.0,69,0.00,,,0.00,Wunderground v.1.15,2013-03-22 14:13:00,
2013-03-22 08:18:00,32.4,22.7,29.80,NNW,338,1.0,-999.0,67,0.00,,,0.00,Wunderground v.1.15,2013-03-22 14:18:00,
2013-03-22 08:23:00,33.2,23.4,29.80,N/A,-737280,0.0,-999.0,67,0.00,,,0.00,Wunderground v.1.15,2013-03-22 14:23:00,
2013-03-22 08:28:00,33.9,23.0,29.80,NNW,338,1.0,-999.0,64,0.00,,,0.00,Wunderground v.1.15,2013-03-22 14:28:00,
2013-03-22 08:33:00,34.4,23.8,29.80,NNW,338,3.0,-999.0,65,0.00,,,0.00,Wunderground v.1.15,2013-03-22 14:33:00,
2013-03-22 08:38:00,34.4,24.2,29.80,NNW,338,1.0,-999.0,66,0.00,,,0.00,Wunderground v.1.15,2013-03-22 14:38:00,
2013-03-22 08:43:00,34.4,23.5,29.80,NNW,338,4.0,-999.0,64,0.00,,,0.00,Wunderground v.1.15,2013-03-22 14:43:00,
2013-03-22 08:48:00,34.4,23.5,29.80,NW,315,0.0,-999.0,64,0.00,,,0.00,Wunderground v.1.15,2013-03-22 14:48:00,
2013-03-22 08:53:00,34.9,22.8,29.80,NW,315,0.0,-999.0,61,0.00,,,0.00,Wunderground v.1.15,2013-03-22 14:53:00,
2013-03-22 08:58:00,35.6,23.5,29.80,NW,315,2.0,-999.0,61,0.00,,,0.00,Wunderground v.1.15,2013-03-22 14:58:00,
2013-03-22 09:03:00,36.4,23.4,29.80,NW,315,1.0,-999.0,59,0.00,,,0.00,Wunderground v.1.15,2013-03-22 15:03:00,
2013-03-22 09:08:00,37.3,22.6,29.79,NW,315,0.0,-999.0,55,0.00,,,0.00,Wunderground v.1.15,2013-03-22 15:08:00,
2013-03-22 09:13:00,38.1,23.8,29.79,NW,315,1.0,-999.0,56,0.00,,,0.00,Wunderground v.1.15,2013-03-22 15:13:00,
2013-03-22 09:18:00,38.2,21.6,29.79,NW,315,1.0,-999.0,51,0.00,,,0.00,Wunderground v.1.15,2013-03-22 15:18:00,
2013-03-22 09:23:00,38.3,21.7,29.79,NW,315,0.0,-999.0,51,0.00,,,0.00,Wunderground v.1.15,2013-03-22 15:23:00,
2013-03-22 09:28:00,38.4,21.4,29.79,NW,315,0.0,-999.0,50,0.00,,,0.00,Wunderground v.1.15,2013-03-22 15:28:00,
2013-03-22 09:33:00,38.7,22.6,29.79,NW,315,0.0,-999.0,52,0.00,,,0.00,Wunderground v.1.15,2013-03-22 15:33:00,
2013-03-22 09:38:00,39.1,22.0,29.79,NW,315,2.0,-999.0,50,0.00,,,0.00,Wunderground v.1.15,2013-03-22 15:38:00,
2013-03-22 09:43:00,39.6,22.5,29.78,NW,315,2.0,-999.0,50,0.00,,,0.00,Wunderground v.1.15,2013-03-22 15:43:00,
2013-03-22 09:48:00,39.9,22.3,29.79,NW,315,1.0,-999.0,49,0.00,,,0.00,Wunderground v.1.15,2013-03-22 15:48:00,
2013-03-22 09:53:00,40.2,21.0,29.78,NW,315,2.0,-999.0,46,0.00,,,0.00,Wunderground v.1.15,2013-03-22 15:53:00,
2013-03-22 09:58:00,40.1,21.0,29.78,NW,315,0.0,-999.0,46,0.00,,,0.00,Wunderground v.1.15,2013-03-22 15:58:00,
2013-03-22 10:03:00,40.5,20.8,29.78,NW,315,1.0,-999.0,45,0.00,,,0.00,Wunderground v.1.15,2013-03-22 16:03:00,
2013-03-22 10:08:00,41.2,20.4,29.77,N/A,-737280,0.0,-999.0,43,0.00,,,0.00,Wunderground v.1.15,2013-03-22 16:08:00,
2013-03-22 10:13:00,41.8,20.9,29.77,NW,315,1.0,-999.0,43,0.00,,,0.00,Wunderground v.1.15,2013-03-22 16:13:00,
2013-03-22 10:18:00,42.2,20.2,29.77,NNW,338,0.0,-999.0,41,0.00,,,0.00,Wunderground v.1.15,2013-03-22 16:18:00,
2013-03-22 10:23:00,42.1,19.5,29.77,NNW,338,0.0,-999.0,40,0.00,,,0.00,Wunderground v.1.15,2013-03-22 16:23:00,
2013-03-22 10:28:00,42.5,19.3,29.77,North,0,0.0,-999.0,39,0.00,,,0.00,Wunderground v.1.15,2013-03-22 16:28:00,
2013-03-22 10:33:00,43.0,20.3,29.76,North,0,3.0,-999.0,40,0.00,,,0.00,Wunderground v.1.15,2013-03-22 16:33:00,
2013-03-22 10:38:00,43.6,19.6,29.76,North,0,3.0,-999.0,38,0.00,,,0.00,Wunderground v.1.15,2013-03-22 16:38:00,
2013-03-22 10:43:00,43.7,20.3,29.76,NNE,23,4.0,-999.0,39,0.00,,,0.00,Wunderground v.1.15,2013-03-22 16:43:00,
2013-03-22 10:48:00,43.6,19.0,29.76,NNE,23,1.0,-999.0,37,0.00,,,0.00,Wunderground v.1.15,2013-03-22 16:48:00,
2013-03-22 10:53:00,43.6,19.6,29.75,NNE,23,2.0,-999.0,38,0.00,,,0.00,Wunderground v.1.15,2013-03-22 16:53:00,
2013-03-22 10:58:00,44.0,20.0,29.75,NE,45,3.0,-999.0,38,0.00,,,0.00,Wunderground v.1.15,2013-03-22 16:58:00,
2013-03-22 11:03:00,44.2,19.5,29.75,North,0,2.0,-999.0,37,0.00,,,0.00,Wunderground v.1.15,2013-03-22 17:03:00,
2013-03-22 11:08:00,44.8,19.4,29.75,North,0,3.0,-999.0,36,0.00,,,0.00,Wunderground v.1.15,2013-03-22 17:08:00,
2013-03-22 11:13:00,45.0,20.9,29.75,NNW,338,4.0,-999.0,38,0.00,,,0.00,Wunderground v.1.15,2013-03-22 17:13:00,
2013-03-22 11:18:00,45.4,20.6,29.74,North,0,2.0,-999.0,37,0.00,,,0.00,Wunderground v.1.15,2013-03-22 17:18:00,
2013-03-22 11:23:00,45.6,20.1,29.74,North,0,3.0,-999.0,36,0.00,,,0.00,Wunderground v.1.15,2013-03-22 17:23:00,
2013-03-22 11:28:00,45.6,19.5,29.74,NNE,23,2.0,-999.0,35,0.00,,,0.00,Wunderground v.1.15,2013-03-22 17:28:00,
2013-03-22 11:33:00,45.8,21.0,29.73,NNE,23,0.0,-999.0,37,0.00,,,0.00,Wunderground v.1.15,2013-03-22 17:33:00,
2013-03-22 11:38:00,46.5,20.9,29.73,NNE,23,3.0,-999.0,36,0.00,,,0.00,Wunderground v.1.15,2013-03-22 17:38:00,
2013-03-22 11:43:00,46.9,20.0,29.73,North,0,2.0,-999.0,34,0.00,,,0.00,Wunderground v.1.15,2013-03-22 17:43:00,
2013-03-22 11:48:00,47.2,20.9,29.73,NNW,338,2.0,-999.0,35,0.00,,,0.00,Wunderground v.1.15,2013-03-22 17:48:00,
2013-03-22 11:53:00,47.3,20.3,29.73,NNW,338,1.0,-999.0,34,0.00,,,0.00,Wunderground v.1.15,2013-03-22 17:53:00,
2013-03-22 11:58:00,46.8,20.6,29.73,NE,45,1.0,-999.0,35,0.00,,,0.00,Wunderground v.1.15,2013-03-22 17:58:00,
2013-03-22 12:03:00,47.4,21.1,29.72,North,0,3.0,-999.0,35,0.00,,,0.00,Wunderground v.1.15,2013-03-22 18:03:00,
2013-03-22 12:08:00,47.9,20.1,29.72,North,0,4.0,-999.0,33,0.00,,,0.00,Wunderground v.1.15,2013-03-22 18:08:00,
2013-03-22 12:13:00,47.8,20.8,29.72,North,0,3.0,-999.0,34,0.00,,,0.00,Wunderground v.1.15,2013-03-22 18:13:00,
2013-03-22 12:18:00,48.0,20.9,29.71,NNW,338,5.0,-999.0,34,0.00,,,0.00,Wunderground v.1.15,2013-03-22 18:18:00,
2013-03-22 12:23:00,47.9,20.8,29.71,NNE,23,2.0,-999.0,34,0.00,,,0.00,Wunderground v.1.15,2013-03-22 18:23:00,
2013-03-22 12:28:00,48.3,19.8,29.71,NW,315,2.0,-999.0,32,0.00,,,0.00,Wunderground v.1.15,2013-03-22 18:28:00,
2013-03-22 12:33:00,48.5,19.9,29.71,NW,315,7.0,-999.0,32,0.00,,,0.00,Wunderground v.1.15,2013-03-22 18:33:00,
2013-03-22 12:38:00,48.8,20.9,29.70,NW,315,3.0,-999.0,33,0.00,,,0.00,Wunderground v.1.15,2013-03-22 18:38:00,
2013-03-22 12:43:00,49.4,20.0,29.70,NNW,338,5.0,-999.0,31,0.00,,,0.00,Wunderground v.1.15,2013-03-22 18:43:00,
2013-03-22 12:48:00,49.2,19.8,29.70,WSW,248,5.0,-999.0,31,0.00,,,0.00,Wunderground v.1.15,2013-03-22 18:48:00,
2013-03-22 12:53:00,48.9,21.0,29.69,SW,225,1.0,-999.0,33,0.00,,,0.00,Wunderground v.1.15,2013-03-22 18:53:00,
2013-03-22 12:58:00,49.5,20.8,29.69,West,270,5.0,-999.0,32,0.00,,,0.00,Wunderground v.1.15,2013-03-22 18:58:00,
2013-03-22 13:03:00,50.3,20.8,29.68,NNE,23,6.0,-999.0,31,0.00,,,0.00,Wunderground v.1.15,2013-03-22 19:03:00,
2013-03-22 13:08:00,50.7,18.7,29.67,WNW,293,3.0,-999.0,28,0.00,,,0.00,Wunderground v.1.15,2013-03-22 19:08:00,
2013-03-22 13:13:00,51.5,15.8,29.67,West,270,6.0,-999.0,24,0.00,,,0.00,Wunderground v.1.15,2013-03-22 19:13:00,
2013-03-22 13:18:00,51.8,17.0,29.66,West,270,6.0,-999.0,25,0.00,,,0.00,Wunderground v.1.15,2013-03-22 19:18:00,
2013-03-22 13:23:00,52.1,16.4,29.66,West,270,4.0,-999.0,24,0.00,,,0.00,Wunderground v.1.15,2013-03-22 19:23:00,
2013-03-22 13:28:00,52.2,14.4,29.66,West,270,8.0,-999.0,22,0.00,,,0.00,Wunderground v.1.15,2013-03-22 19:28:00,
2013-03-22 13:33:00,52.2,17.4,29.65,NW,315,8.0,-999.0,25,0.00,,,0.00,Wunderground v.1.15,2013-03-22 19:33:00,
2013-03-22 13:38:00,52.4,15.6,29.65,NW,315,4.0,-999.0,23,0.00,,,0.00,Wunderground v.1.15,2013-03-22 19:38:00,
2013-03-22 13:43:00,52.4,15.6,29.65,West,270,6.0,-999.0,23,0.00,,,0.00,Wunderground v.1.15,2013-03-22 19:43:00,
2013-03-22 13:48:00,52.6,17.7,29.65,West,270,7.0,-999.0,25,0.00,,,0.00,Wunderground v.1.15,2013-03-22 19:48:00,
2013-03-22 13:53:00,52.9,16.1,29.64,West,270,6.0,-999.0,23,0.00,,,0.00,Wunderground v.1.15,2013-03-22 19:53:00,
2013-03-22 13:58:00,52.8,16.0,29.64,NW,315,9.0,-999.0,23,0.00,,,0.00,Wunderground v.1.15,2013-03-22 19:58:00,
2013-03-22 14:03:00,52.8,16.9,29.64,WNW,293,8.0,-999.0,24,0.00,,,0.00,Wunderground v.1.15,2013-03-22 20:03:00,
2013-03-22 14:08:00,52.8,16.0,29.64,WSW,248,6.0,-999.0,23,0.00,,,0.00,Wunderground v.1.15,2013-03-22 20:08:00,
2013-03-22 14:13:00,52.8,14.9,29.63,WNW,293,4.0,-999.0,22,0.00,,,0.00,Wunderground v.1.15,2013-03-22 20:13:00,
2013-03-22 14:18:00,52.9,16.1,29.63,WNW,293,6.0,-999.0,23,0.00,,,0.00,Wunderground v.1.15,2013-03-22 20:18:00,
2013-03-22 14:23:00,53.2,16.3,29.63,NW,315,10.0,-999.0,23,0.00,,,0.00,Wunderground v.1.15,2013-03-22 20:23:00,
2013-03-22 14:28:00,53.5,16.6,29.63,NW,315,8.0,-999.0,23,0.00,,,0.00,Wunderground v.1.15,2013-03-22 20:28:00,
2013-03-22 14:33:00,53.4,15.4,29.63,West,270,6.0,-999.0,22,0.00,,,0.00,Wunderground v.1.15,2013-03-22 20:33:00,
2013-03-22 14:38:00,53.3,15.4,29.63,WSW,248,5.0,-999.0,22,0.00,,,0.00,Wunderground v.1.15,2013-03-22 20:38:00,
2013-03-22 14:43:00,53.0,15.1,29.63,WSW,248,8.0,-999.0,22,0.00,,,0.00,Wunderground v.1.15,2013-03-22 20:43:00,
2013-03-22 14:48:00,53.1,14.1,29.62,SSW,203,4.0,-999.0,21,0.00,,,0.00,Wunderground v.1.15,2013-03-22 20:48:00,
2013-03-22 14:53:00,53.3,16.4,29.62,West,270,9.0,-999.0,23,0.00,,,0.00,Wunderground v.1.15,2013-03-22 20:53:00,
2013-03-22 14:58:00,53.7,16.7,29.62,West,270,8.0,-999.0,23,0.00,,,0.00,Wunderground v.1.15,2013-03-22 20:58:00,
2013-03-22 15:03:00,53.9,15.9,29.62,SW,225,4.0,-999.0,22,0.00,,,0.00,Wunderground v.1.15,2013-03-22 21:03:00,
2013-03-22 15:08:00,53.5,13.4,29.62,WSW,248,5.0,-999.0,20,0.00,,,0.00,Wunderground v.1.15,2013-03-22 21:08:00,
2013-03-22 15:13:00,53.0,14.0,29.63,WNW,293,12.0,-999.0,21,0.00,,,0.00,Wunderground v.1.15,2013-03-22 21:13:00,
2013-03-22 15:18:00,52.9,12.9,29.62,SSW,203,14.0,-999.0,20,0.00,,,0.00,Wunderground v.1.15,2013-03-22 21:18:00,
2013-03-22 15:23:00,52.9,12.9,29.62,WSW,248,11.0,-999.0,20,0.00,,,0.00,Wunderground v.1.15,2013-03-22 21:23:00,
2013-03-22 15:28:00,52.9,12.9,29.62,West,270,6.0,-999.0,20,0.00,,,0.00,Wunderground v.1.15,2013-03-22 21:28:00,
2013-03-22 15:33:00,53.3,14.3,29.61,WSW,248,6.0,-999.0,21,0.00,,,0.00,Wunderground v.1.15,2013-03-22 21:33:00,
2013-03-22 15:38:00,54.0,12.6,29.62,West,270,14.0,-999.0,19,0.00,,,0.00,Wunderground v.1.15,2013-03-22 21:38:00,
2013-03-22 15:43:00,53.5,12.2,29.62,West,270,3.0,-999.0,19,0.00,,,0.00,Wunderground v.1.15,2013-03-22 21:43:00,
2013-03-22 15:48:00,53.2,11.9,29.61,West,270,6.0,-999.0,19,0.00,,,0.00,Wunderground v.1.15,2013-03-22 21:48:00,
2013-03-22 15:53:00,53.4,10.9,29.61,West,270,11.0,-999.0,18,0.00,,,0.00,Wunderground v.1.15,2013-03-22 21:53:00,
2013-03-22 15:58:00,53.2,10.7,29.61,SW,225,12.0,-999.0,18,0.00,,,0.00,Wunderground v.1.15,2013-03-22 21:58:00,
2013-03-22 16:03:00,53.2,11.9,29.61,WSW,248,7.0,-999.0,19,0.00,,,0.00,Wunderground v.1.15,2013-03-22 22:03:00,
2013-03-22 16:08:00,53.0,9.3,29.60,WSW,248,9.0,-999.0,17,0.00,,,0.00,Wunderground v.1.15,2013-03-22 22:08:00,
2013-03-22 16:13:00,52.9,9.2,29.61,West,270,13.0,-999.0,17,0.00,,,0.00,Wunderground v.1.15,2013-03-22 22:13:00,
2013-03-22 16:18:00,52.8,10.4,29.61,West,270,5.0,-999.0,18,0.00,,,0.00,Wunderground v.1.15,2013-03-22 22:18:00,
2013-03-22 16:23:00,53.5,9.7,29.60,West,270,6.0,-999.0,17,0.00,,,0.00,Wunderground v.1.15,2013-03-22 22:23:00,
2013-03-22 16:28:00,53.6,9.8,29.61,West,270,10.0,-999.0,17,0.00,,,0.00,Wunderground v.1.15,2013-03-22 22:28:00,
2013-03-22 16:33:00,53.0,9.3,29.61,West,270,7.0,-999.0,17,0.00,,,0.00,Wunderground v.1.15,2013-03-22 22:33:00,
2013-03-22 16:38:00,52.8,10.4,29.61,West,270,6.0,-999.0,18,0.00,,,0.00,Wunderground v.1.15,2013-03-22 22:38:00,
2013-03-22 16:43:00,52.6,11.4,29.61,SW,225,4.0,-999.0,19,0.00,,,0.00,Wunderground v.1.15,2013-03-22 22:43:00,
2013-03-22 16:48:00,52.4,10.1,29.61,WNW,293,11.0,-999.0,18,0.00,,,0.00,Wunderground v.1.15,2013-03-22 22:48:00,
2013-03-22 16:53:00,51.9,9.6,29.61,West,270,11.0,-999.0,18,0.00,,,0.00,Wunderground v.1.15,2013-03-22 22:53:00,
2013-03-22 16:58:00,51.5,10.5,29.61,West,270,9.0,-999.0,19,0.00,,,0.00,Wunderground v.1.15,2013-03-22 22:58:00,
2013-03-22 17:03:00,51.0,15.4,29.62,NW,315,10.0,-999.0,24,0.00,,,0.00,Wunderground v.1.15,2013-03-22 23:03:00,
2013-03-22 17:08:00,50.4,17.6,29.63,NNW,338,11.0,-999.0,27,0.00,,,0.00,Wunderground v.1.15,2013-03-22 23:08:00,
2013-03-22 17:13:00,49.4,16.8,29.63,NNW,338,13.0,-999.0,27,0.00,,,0.00,Wunderground v.1.15,2013-03-22 23:13:00,
2013-03-22 17:18:00,48.8,17.9,29.64,NW,315,3.0,-999.0,29,0.00,,,0.00,Wunderground v.1.15,2013-03-22 23:18:00,
2013-03-22 17:23:00,48.4,15.9,29.64,WNW,293,11.0,-999.0,27,0.00,,,0.00,Wunderground v.1.15,2013-03-22 23:23:00,
2013-03-22 17:28:00,48.0,15.6,29.64,North,0,7.0,-999.0,27,0.00,,,0.00,Wunderground v.1.15,2013-03-22 23:28:00,
2013-03-22 17:33:00,47.9,17.9,29.64,NW,315,7.0,-999.0,30,0.00,,,0.00,Wunderground v.1.15,2013-03-22 23:33:00,
2013-03-22 17:38:00,48.2,18.9,29.65,NNW,338,7.0,-999.0,31,0.00,,,0.00,Wunderground v.1.15,2013-03-22 23:38:00,
2013-03-22 17:43:00,48.2,18.2,29.65,NW,315,10.0,-999.0,30,0.00,,,0.00,Wunderground v.1.15,2013-03-22 23:43:00,
2013-03-22 17:48:00,47.5,18.3,29.65,WNW,293,8.0,-999.0,31,0.00,,,0.00,Wunderground v.1.15,2013-03-22 23:48:00,
2013-03-22 17:53:00,46.9,18.5,29.65,NNW,338,7.0,-999.0,32,0.00,,,0.00,Wunderground v.1.15,2013-03-22 23:53:00,
2013-03-22 17:58:00,46.7,19.1,29.66,WNW,293,6.0,-999.0,33,0.00,,,0.00,Wunderground v.1.15,2013-03-22 23:58:00,
2013-03-22 18:03:00,46.5,18.9,29.66,NW,315,8.0,-999.0,33,0.00,,,0.00,Wunderground v.1.15,2013-03-23 00:03:00,
2013-03-22 18:08:00,46.7,18.4,29.67,North,0,10.0,-999.0,32,0.00,,,0.00,Wunderground v.1.15,2013-03-23 00:08:00,
2013-03-22 18:13:00,46.5,18.9,29.67,NW,315,7.0,-999.0,33,0.00,,,0.00,Wunderground v.1.15,2013-03-23 00:13:00,
2013-03-22 18:18:00,46.1,19.2,29.67,WNW,293,7.0,-999.0,34,0.00,,,0.00,Wunderground v.1.15,2013-03-23 00:18:00,
2013-03-22 18:23:00,45.8,19.0,29.68,NNW,338,6.0,-999.0,34,0.00,,,0.00,Wunderground v.1.15,2013-03-23 00:23:00,
2013-03-22 18:28:00,45.2,18.5,29.68,NNW,338,6.0,-999.0,34,0.00,,,0.00,Wunderground v.1.15,2013-03-23 00:28:00,
2013-03-22 18:33:00,44.6,17.9,29.69,NW,315,9.0,-999.0,34,0.00,,,0.00,Wunderground v.1.15,2013-03-23 00:33:00,
2013-03-22 18:38:00,44.1,18.2,29.69,North,0,11.0,-999.0,35,0.00,,,0.00,Wunderground v.1.15,2013-03-23 00:38:00,
2013-03-22 18:43:00,43.8,18.5,29.69,North,0,8.0,-999.0,36,0.00,,,0.00,Wunderground v.1.15,2013-03-23 00:43:00,
2013-03-22 18:48:00,43.6,18.4,29.70,NNW,338,7.0,-999.0,36,0.00,,,0.00,Wunderground v.1.15,2013-03-23 00:48:00,
2013-03-22 18:53:00,43.5,18.9,29.70,WNW,293,11.0,-999.0,37,0.00,,,0.00,Wunderground v.1.15,2013-03-23 00:53:00,
2013-03-22 18:58:00,43.2,18.0,29.70,NNW,338,10.0,-999.0,36,0.00,,,0.00,Wunderground v.1.15,2013-03-23 00:58:00,
2013-03-22 19:03:00,42.7,17.6,29.71,North,0,8.0,-999.0,36,0.00,,,0.00,Wunderground v.1.15,2013-03-23 01:03:00,
2013-03-22 19:08:00,42.1,17.0,29.72,NNW,338,8.0,-999.0,36,0.00,,,0.00,Wunderground v.1.15,2013-03-23 01:08:00,
2013-03-22 19:13:00,41.6,16.6,29.72,NNW,338,8.0,-999.0,36,0.00,,,0.00,Wunderground v.1.15,2013-03-23 01:13:00,
2013-03-22 19:18:00,41.2,16.2,29.72,NW,315,6.0,-999.0,36,0.00,,,0.00,Wunderground v.1.15,2013-03-23 01:18:00,
2013-03-22 19:23:00,40.9,16.6,29.73,NW,315,5.0,-999.0,37,0.00,,,0.00,Wunderground v.1.15,2013-03-23 01:23:00,
2013-03-22 19:28:00,40.7,16.4,29.73,WNW,293,6.0,-999.0,37,0.00,,,0.00,Wunderground v.1.15,2013-03-23 01:28:00,
2013-03-22 19:33:00,40.5,16.2,29.74,WNW,293,7.0,-999.0,37,0.00,,,0.00,Wunderground v.1.15,2013-03-23 01:33:00,
2013-03-22 19:38:00,40.2,16.6,29.74,West,270,8.0,-999.0,38,0.00,,,0.00,Wunderground v.1.15,2013-03-23 01:38:00,
2013-03-22 19:43:00,40.0,16.4,29.75,WNW,293,5.0,-999.0,38,0.00,,,0.00,Wunderground v.1.15,2013-03-23 01:43:00,
2013-03-22 19:48:00,39.8,16.2,29.75,WNW,293,3.0,-999.0,38,0.00,,,0.00,Wunderground v.1.15,2013-03-23 01:48:00,
2013-03-22 19:53:00,39.5,16.6,29.76,WNW,293,3.0,-999.0,39,0.00,,,0.00,Wunderground v.1.15,2013-03-23 01:53:00,
2013-03-22 19:58:00,39.2,16.3,29.76,West,270,5.0,-999.0,39,0.00,,,0.00,Wunderground v.1.15,2013-03-23 01:58:00,
2013-03-22 20:03:00,38.9,16.6,29.76,WNW,293,1.0,-999.0,40,0.00,,,0.00,Wunderground v.1.15,2013-03-23 02:03:00,
2013-03-22 20:08:00,38.7,17.0,29.76,West,270,1.0,-999.0,41,0.00,,,0.00,Wunderground v.1.15,2013-03-23 02:08:00,
2013-03-22 20:13:00,38.4,16.7,29.77,WNW,293,4.0,-999.0,41,0.00,,,0.00,Wunderground v.1.15,2013-03-23 02:13:00,
2013-03-22 20:18:00,38.3,16.6,29.77,West,270,3.0,-999.0,41,0.00,,,0.00,Wunderground v.1.15,2013-03-23 02:18:00,
2013-03-22 20:23:00,38.3,16.6,29.78,WNW,293,2.0,-999.0,41,0.00,,,0.00,Wunderground v.1.15,2013-03-23 02:23:00,
2013-03-22 20:28:00,38.4,16.1,29.78,WNW,293,2.0,-999.0,40,0.00,,,0.00,Wunderground v.1.15,2013-03-23 02:28:00,
2013-03-22 20:33:00,38.4,16.1,29.78,WNW,293,2.0,-999.0,40,0.00,,,0.00,Wunderground v.1.15,2013-03-23 02:33:00,
2013-03-22 20:38:00,38.4,16.1,29.78,WNW,293,4.0,-999.0,40,0.00,,,0.00,Wunderground v.1.15,2013-03-23 02:38:00,
2013-03-22 20:43:00,38.3,15.5,29.79,WNW,293,5.0,-999.0,39,0.00,,,0.00,Wunderground v.1.15,2013-03-23 02:43:00,
2013-03-22 20:48:00,38.3,14.9,29.79,WNW,293,8.0,-999.0,38,0.00,,,0.00,Wunderground v.1.15,2013-03-23 02:48:00,
2013-03-22 20:53:00,38.2,14.8,29.79,NW,315,5.0,-999.0,38,0.00,,,0.00,Wunderground v.1.15,2013-03-23 02:53:00,
2013-03-22 20:58:00,38.0,14.6,29.79,WNW,293,6.0,-999.0,38,0.00,,,0.00,Wunderground v.1.15,2013-03-23 02:58:00,
2013-03-22 21:03:00,37.8,14.4,29.80,NW,315,2.0,-999.0,38,0.00,,,0.00,Wunderground v.1.15,2013-03-23 03:03:00,
2013-03-22 21:08:00,37.7,14.3,29.80,West,270,2.0,-999.0,38,0.00,,,0.00,Wunderground v.1.15,2013-03-23 03:08:00,
2013-03-22 21:13:00,37.7,13.7,29.81,WNW,293,4.0,-999.0,37,0.00,,,0.00,Wunderground v.1.15,2013-03-23 03:13:00,
2013-03-22 21:18:00,37.6,13.0,29.81,WNW,293,5.0,-999.0,36,0.00,,,0.00,Wunderground v.1.15,2013-03-23 03:18:00,
2013-03-22 21:23:00,37.6,13.0,29.82,WNW,293,4.0,-999.0,36,0.00,,,0.00,Wunderground v.1.15,2013-03-23 03:23:00,
2013-03-22 21:28:00,37.4,12.2,29.82,West,270,3.0,-999.0,35,0.00,,,0.00,Wunderground v.1.15,2013-03-23 03:28:00,
2013-03-22 21:33:00,37.2,11.4,29.82,WNW,293,6.0,-999.0,34,0.00,,,0.00,Wunderground v.1.15,2013-03-23 03:33:00,
2013-03-22 21:38:00,37.0,11.8,29.82,West,270,3.0,-999.0,35,0.00,,,0.00,Wunderground v.1.15,2013-03-23 03:38:00,
2013-03-22 21:43:00,36.8,11.7,29.83,NW,315,3.0,-999.0,35,0.00,,,0.00,Wunderground v.1.15,2013-03-23 03:43:00,
2013-03-22 21:48:00,36.7,11.6,29.82,NW,315,5.0,-999.0,35,0.00,,,0.00,Wunderground v.1.15,2013-03-23 03:48:00,
2013-03-22 21:53:00,36.7,11.6,29.83,West,270,3.0,-999.0,35,0.00,,,0.00,Wunderground v.1.15,2013-03-23 03:53:00,
2013-03-22 21:58:00,36.8,11.0,29.83,SW,225,4.0,-999.0,34,0.00,,,0.00,Wunderground v.1.15,2013-03-23 03:58:00,
2013-03-22 22:03:00,36.8,11.0,29.83,West,270,2.0,-999.0,34,0.00,,,0.00,Wunderground v.1.15,2013-03-23 04:03:00,
2013-03-22 22:08:00,36.9,10.4,29.83,WNW,293,5.0,-999.0,33,0.00,,,0.00,Wunderground v.1.15,2013-03-23 04:08:00,
2013-03-22 22:13:00,36.9,10.4,29.84,WSW,248,1.0,-999.0,33,0.00,,,0.00,Wunderground v.1.15,2013-03-23 04:13:00,
2013-03-22 22:18:00,36.9,10.4,29.84,WSW,248,2.0,-999.0,33,0.00,,,0.00,Wunderground v.1.15,2013-03-23 04:18:00,
2013-03-22 22:23:00,36.9,9.7,29.85,WNW,293,4.0,-999.0,32,0.00,,,0.00,Wunderground v.1.15,2013-03-23 04:23:00,
2013-03-22 22:28:00,36.8,8.9,29.85,West,270,5.0,-999.0,31,0.00,,,0.00,Wunderground v.1.15,2013-03-23 04:28:00,
2013-03-22 22:33:00,36.7,8.1,29.85,West,270,4.0,-999.0,30,0.00,,,0.00,Wunderground v.1.15,2013-03-23 04:33:00,
2013-03-22 22:38:00,36.6,8.0,29.86,West,270,4.0,-999.0,30,0.00,,,0.00,Wunderground v.1.15,2013-03-23 04:38:00,
2013-03-22 22:43:00,36.5,7.2,29.86,West,270,3.0,-999.0,29,0.00,,,0.00,Wunderground v.1.15,2013-03-23 04:43:00,
2013-03-22 22:48:00,36.4,7.1,29.87,West,270,5.0,-999.0,29,0.00,,,0.00,Wunderground v.1.15,2013-03-23 04:48:00,
2013-03-22 22:53:00,36.3,7.0,29.87,West,270,3.0,-999.0,29,0.00,,,0.00,Wunderground v.1.15,2013-03-23 04:53:00,
2013-03-22 22:58:00,36.2,6.9,29.87,West,270,4.0,-999.0,29,0.00,,,0.00,Wunderground v.1.15,2013-03-23 04:58:00,
2013-03-22 23:03:00,36.1,6.9,29.87,WNW,293,5.0,-999.0,29,0.00,,,0.00,Wunderground v.1.15,2013-03-23 05:03:00,
2013-03-22 23:08:00,36.0,6.8,29.87,West,270,4.0,-999.0,29,0.00,,,0.00,Wunderground v.1.15,2013-03-23 05:08:00,
2013-03-22 23:13:00,35.9,6.7,29.88,West,270,4.0,-999.0,29,0.00,,,0.00,Wunderground v.1.15,2013-03-23 05:13:00,
2013-03-22 23:18:00,35.8,6.6,29.88,WNW,293,5.0,-999.0,29,0.00,,,0.00,Wunderground v.1.15,2013-03-23 05:18:00,
2013-03-22 23:23:00,35.7,6.5,29.88,West,270,5.0,-999.0,29,0.00,,,0.00,Wunderground v.1.15,2013-03-23 05:23:00,
2013-03-22 23:28:00,35.5,6.3,29.88,WNW,293,4.0,-999.0,29,0.00,,,0.00,Wunderground v.1.15,2013-03-23 05:28:00,
2013-03-22 23:33:00,35.3,6.2,29.88,NW,315,5.0,-999.0,29,0.00,,,0.00,Wunderground v.1.15,2013-03-23 05:33:00,
2013-03-22 23:38:00,35.2,6.1,29.88,West,270,2.0,-999.0,29,0.00,,,0.00,Wunderground v.1.15,2013-03-23 05:38:00,
2013-03-22 23:43:00,35.0,5.9,29.88,WNW,293,4.0,-999.0,29,0.00,,,0.00,Wunderground v.1.15,2013-03-23 05:43:00,
2013-03-22 23:48:00,34.8,6.5,29.88,WNW,293,3.0,-999.0,30,0.00,,,0.00,Wunderground v.1.15,2013-03-23 05:48:00,
2013-03-22 23:53:00,34.7,6.4,29.89,West,270,6.0,-999.0,30,0.00,,,0.00,Wunderground v.1.15,2013-03-23 05:53:00,
2013-03-22 23:58:00,34.6,5.5,29.88,WNW,293,7.0,-999.0,29,0.00,,,0.00,Wunderground v.1.15,2013-03-23 05:58:00,